> Flugplatz > 
Stacks Image 3
Aktuelle METAR Daten (Memmingen, Friedrichshafen, Laupheim):
2016/12/06 13:50 EDJA 061350Z VRB02KT CAVOK 09/M02 Q1029
2016/12/06 13:50 EDNY 061350Z 18002KT 4000 BR OVC004 01/01 Q1031
2016/12/06 13:20 ETHL 061320Z VRB01KT 9999 FEW250 06/M00 Q1030 BLU+BLU+
Sicherheits- und Servicehinweise:

Bitte achten Sie beim Anflug auf mögliche Fall­schirm­springer auf der Nordseite des Platzes, kontaktieren Sie zur Sicherheit den Flugleiter auf Leutkirch INFO 122,875.

Zollabfertigung:
für Ein- und Ausflug bei Voranmeldung mindestens 3 Stunden, nur Personenverkehr – keine Warenabfertigung.

Günstig Tanken:
Avgas 100 II · Super 95 · Jet A1 · Diesel

Aktuelles:

Winterflugbetrieb vom 01.11.16 – 14.03.17:
Der Flugplatz ist bei Schneefall PPR 2 HR, die Flugleitung ist täglich mindestens von 10:00 bis 15:00 Uhr besetzt.
Am 25.12.16 und 01.01.17 ist der Flugplatz geschlossen.

Weitere Informationen finden Sie in unserem Newsbereich.

Nutzen Sie unsere Online-Anmeldung zur Zoll- und Passkontrolle.